This is the latest recevied weather packets stored in our database for station/object K0WOI. If no packets are shown the sender has not sent any weather packets the latest 10 day(s).
| Time | Temp. | Humidity | Pressure | Rain* | Wind** | Luminosity | Snow |
|---|---|---|---|---|---|---|---|
| 1777491814 | 15° C | 43% | 1018.6 hPa | 0 mm | - | 425 W/m² | - |
| 1777491511 | 14.44° C | 44% | 1018.5 hPa | 0 mm | - | 802 W/m² | - |
| 1777491208 | 15° C | 44% | 1018.6 hPa | 0 mm | - | 246 W/m² | - |
| 1777490904 | 15.56° C | 45% | 1018.7 hPa | 0 mm | - | 784 W/m² | - |
| 1777490600 | 14.44° C | 49% | 1018.6 hPa | 0 mm | - | 727 W/m² | - |
| 1777490296 | 14.44° C | 47% | 1018.7 hPa | 0 mm | - | 212 W/m² | - |
| 1777489994 | 13.89° C | 49% | 1018.8 hPa | 0 mm | - | 733 W/m² | - |
| 1777489692 | 14.44° C | 51% | 1018.9 hPa | 0 mm | - | 229 W/m² | - |
| 1777489388 | 13.89° C | 45% | 1018.9 hPa | 0 mm | - | 209 W/m² | - |
| 1777489085 | 13.33° C | 45% | 1018.8 hPa | 0 mm | - | 214 W/m² | - |
| 1777488782 | 14.44° C | 45% | 1018.9 hPa | 0 mm | - | 190 W/m² | - |
| 1777488480 | 13.89° C | 47% | 1019 hPa | 0 mm | - | 271 W/m² | - |
| 1777488178 | 14.44° C | 45% | 1018.7 hPa | 0 mm | - | 864 W/m² | - |
| 1777487875 | 13.89° C | 49% | 1019.1 hPa | 0 mm | - | 657 W/m² | - |
| 1777487573 | 13.89° C | 48% | 1019 hPa | 0 mm | - | 764 W/m² | - |
| 1777487270 | 13.33° C | 51% | 1018.9 hPa | 0 mm | - | 773 W/m² | - |
| 1777486966 | 14.44° C | 47% | 1019.4 hPa | 0 mm | - | 530 W/m² | - |
| 1777486663 | 13.33° C | 53% | 1019.3 hPa | 0 mm | - | 730 W/m² | - |
| 1777486361 | 13.33° C | 51% | 1019.2 hPa | 0 mm | - | 176 W/m² | - |
| 1777486058 | 13.33° C | 49% | 1019.3 hPa | 0 mm | - | 235 W/m² | - |
| 1777485754 | 13.89° C | 52% | 1019.4 hPa | 0 mm | - | 242 W/m² | - |
| 1777485450 | 13.33° C | 60% | 1019.5 hPa | 0 mm | - | 350 W/m² | - |
| 1777485146 | 13.33° C | 61% | 1019.6 hPa | 0 mm | - | 363 W/m² | - |
| 1777484842 | 12.78° C | 57% | 1019.8 hPa | 0 mm | - | 119 W/m² | - |
| 1777484540 | 12.78° C | 54% | 1019.7 hPa | 0 mm | - | 379 W/m² | - |
* Rain latest hour (hover to see other rain measurements)
** Current wind speed in m/s (hover to see current wind gust speed)